TimeEDT,TemperatureF,Dew PointF,Humidity,Sea Level PressureIn,VisibilityMPH,Wind Direction,Wind SpeedMPH,Gust SpeedMPH,PrecipitationIn,Events,Conditions,WindDirDegrees,DateUTC
12:54 AM,73.9,69.1,85,29.90,7.0,East,4.6,-,N/A,,Mostly Cloudy,90,2013-06-19 04:54:00
1:54 AM,73.0,64.9,76,29.91,10.0,East,3.5,-,0.01,,Mostly Cloudy,80,2013-06-19 05:54:00
2:54 AM,71.1,64.9,81,29.92,10.0,Calm,Calm,-,N/A,,Overcast,0,2013-06-19 06:54:00
3:54 AM,72.0,64.0,76,29.91,10.0,Calm,Calm,-,N/A,,Overcast,0,2013-06-19 07:54:00
4:54 AM,71.1,64.9,81,29.91,10.0,Calm,Calm,-,N/A,,Overcast,0,2013-06-19 08:54:00
5:54 AM,72.0,64.0,76,29.93,10.0,Calm,Calm,-,N/A,,Overcast,0,2013-06-19 09:54:00
6:54 AM,72.0,63.0,73,29.96,10.0,ENE,4.6,-,N/A,,Overcast,60,2013-06-19 10:54:00
7:54 AM,72.0,63.0,73,29.99,10.0,North,3.5,-,N/A,,Overcast,360,2013-06-19 11:54:00
8:54 AM,73.9,63.0,68,30.00,10.0,ENE,4.6,-,0.00,,Overcast,70,2013-06-19 12:54:00
9:54 AM,75.0,63.0,66,30.01,10.0,ENE,5.8,-,N/A,,Overcast,60,2013-06-19 13:54:00
10:54 AM,78.1,62.1,58,30.01,10.0,Variable,6.9,-,N/A,,Overcast,0,2013-06-19 14:54:00
11:54 AM,79.0,64.0,60,30.03,10.0,East,4.6,-,N/A,,Overcast,90,2013-06-19 15:54:00
12:54 PM,81.0,64.0,56,30.02,10.0,East,4.6,-,N/A,,Mostly Cloudy,100,2013-06-19 16:54:00
1:54 PM,81.0,64.0,56,30.02,10.0,South,4.6,-,N/A,,Scattered Clouds,170,2013-06-19 17:54:00
2:54 PM,84.0,63.0,49,30.00,10.0,NNE,4.6,-,N/A,,Clear,30,2013-06-19 18:54:00
3:54 PM,82.9,64.0,53,30.00,10.0,NNE,5.8,-,N/A,,Clear,30,2013-06-19 19:54:00
4:54 PM,82.9,64.0,53,30.00,10.0,NE,4.6,-,N/A,,Clear,50,2013-06-19 20:54:00
5:54 PM,84.0,64.0,51,30.01,10.0,NE,4.6,-,N/A,,Clear,40,2013-06-19 21:54:00
6:54 PM,82.9,63.0,51,30.01,10.0,East,5.8,-,N/A,,Clear,90,2013-06-19 22:54:00
7:54 PM,81.0,63.0,54,30.03,10.0,ESE,4.6,-,N/A,,Scattered Clouds,110,2013-06-19 23:54:00
8:54 PM,77.0,64.0,64,30.04,10.0,Calm,Calm,-,N/A,,Partly Cloudy,0,2013-06-20 00:54:00
9:54 PM,75.0,64.0,69,30.07,10.0,Calm,Calm,-,N/A,,Clear,0,2013-06-20 01:54:00
10:54 PM,73.0,64.9,76,30.10,10.0,Calm,Calm,-,N/A,,Clear,0,2013-06-20 02:54:00
11:54 PM,73.0,66.0,79,30.11,10.0,Calm,Calm,-,N/A,,Clear,0,2013-06-20 03:54:00